Overview Statistics Trail Chart Weather Telemetry Raw packets
 

This is the latest recevied weather packets stored in our database for station/object KE8WMS. If no packets are shown the sender has not sent any weather packets the latest 10 day(s).

<< 83 84 85 86 87 88 89 >>
Time Temp. Humidity Pressure Rain* Wind** Luminosity Snow
1777226200 10° C 92% 1018.1 hPa 0 mm - 414 W/m² -
1777225897 9.44° C 93% 1018.2 hPa 0 mm - 357 W/m² -
1777225592 9.44° C 93% 1018.3 hPa 0 mm - 416 W/m² -
1777225290 10° C 92% 1018.2 hPa 0 mm - 395 W/m² -
1777224986 10° C 94% 1018.1 hPa 0 mm - 393 W/m² -
1777224684 9.44° C 94% 1018.3 hPa 0 mm - 359 W/m² -
1777224383 9.44° C 95% 1018.3 hPa 0 mm - 327 W/m² -
1777224080 8.89° C 94% 1018.3 hPa 0 mm - 296 W/m² -
1777223777 9.44° C 95% 1018.4 hPa 0 mm - 318 W/m² -
1777223473 8.89° C 95% 1018.5 hPa 0 mm - 388 W/m² -
1777223171 8.89° C 95% 1018.4 hPa 0 mm - 298 W/m² -
1777222868 8.89° C 96% 1018.3 hPa 0 mm - 270 W/m² -
1777222565 8.89° C 96% 1018.3 hPa 0 mm - 237 W/m² -
1777222263 8.89° C 96% 1018.3 hPa 0 mm - 297 W/m² -
1777221961 8.89° C 96% 1018.3 hPa 0 mm - 270 W/m² -
1777221656 8.89° C 96% 1018.1 hPa 0 mm - 244 W/m² -
1777221353 8.89° C 96% 1018.4 hPa 0 mm - 239 W/m² -
1777221051 8.89° C 96% 1018.2 hPa 0 mm - 237 W/m² -
1777220750 8.89° C 95% 1018.3 hPa 0 mm - 202 W/m² -
1777220447 9.44° C 94% 1018.5 hPa 0 mm - 184 W/m² -
1777220146 9.44° C 95% 1018.5 hPa 0 mm - 191 W/m² -
1777219843 9.44° C 95% 1018.3 hPa 0 mm - 208 W/m² -
1777219541 9.44° C 95% 1018 hPa 0 mm - 230 W/m² -
1777219237 9.44° C 95% 1018.6 hPa 0 mm - 339 W/m² -
1777218932 9.44° C 95% 1018.2 hPa 0 mm - 231 W/m² -

* Rain latest hour (hover to see other rain measurements)
** Current wind speed in m/s (hover to see current wind gust speed)